{"data":{"norad_id":66114,"epoch":"2026-05-25T03:02:41.244864Z","epoch_age_seconds":64847,"freshness":"FRESH","line1":"1 66114U 25237A   26145.12686626  .00031740  00000+0  10789-2 0  9993","line2":"2 66114  53.1591  44.5640 0001109  87.2416 272.8712 15.30208117 34314","mean_motion":15.30208117,"eccentricity":0.0001109,"inclination_deg":53.1591,"raan_deg":44.564,"arg_perigee_deg":87.2416,"mean_anomaly_deg":272.8712,"bstar":0.0010789,"rev_number":3431,"period_min":94.104846523958,"perigee_km":474.43079957081,"apogee_km":475.9508676843,"semimajor_km":6853.3278336276,"source":"CELESTRAK","updated_at":"2026-05-25T13:38:21.061125Z"}}